Data No.,UTC Date,UTC Time,Latitude,Longitude,Course(deg),Temp(degC),Sal(psu)
21,2014/10/5,0:13:00,34-25.4400N,137-11.9700E,121,23.05,34.0491
22,2014/10/5,0:14:00,34-25.3400N,137-12.1600E,121,23.064,34.0642
23,2014/10/5,0:15:00,34-25.2500N,137-12.3500E,118,23.083,34.0719
24,2014/10/5,0:16:00,34-25.1500N,137-12.5500E,122,23.093,34.0906
25,2014/10/5,0:17:00,34-25.0600N,137-12.7400E,119,23.069,34.1031
26,2014/10/5,0:18:00,34-24.9600N,137-12.9400E,121,23.063,34.1103
27,2014/10/5,0:19:00,34-24.8700N,137-13.1300E,118,23.066,34.118
28,2014/10/5,0:20:00,34-24.7700N,137-13.3200E,118,23.063,34.12
29,2014/10/5,0:21:00,34-24.6800N,137-13.5100E,122,23.045,34.123
30,2014/10/5,0:22:00,34-24.5900N,137-13.7000E,119,23.011,34.1223
31,2014/10/5,0:23:00,34-24.5000N,137-13.9000E,121,22.992,34.1225
32,2014/10/5,0:24:00,34-24.4000N,137-14.1000E,120,22.99,34.1237
33,2014/10/5,0:25:00,34-24.3100N,137-14.2900E,118,23.018,34.1244
34,2014/10/5,0:26:00,34-24.2200N,137-14.4800E,120,23.031,34.1085
35,2014/10/5,0:27:00,34-24.1300N,137-14.6800E,117,23.045,34.1086
36,2014/10/5,0:28:00,34-24.0400N,137-14.8700E,121,23.064,34.1098
37,2014/10/5,0:29:00,34-23.9600N,137-15.0600E,117,23.083,34.1129
38,2014/10/5,0:30:00,34-23.8700N,137-15.2500E,120,23.099,34.1164
39,2014/10/5,0:31:00,34-23.7800N,137-15.4500E,118,23.119,34.1014
40,2014/10/5,0:32:00,34-23.6900N,137-15.6400E,119,23.131,34.072
41,2014/10/5,0:33:00,34-23.6000N,137-15.8300E,118,23.137,34.0676
42,2014/10/5,0:34:00,34-23.5200N,137-16.0200E,119,23.144,34.0207
43,2014/10/5,0:35:00,34-23.4300N,137-16.2200E,116,23.155,34.0631
44,2014/10/5,0:36:00,34-23.3400N,137-16.4300E,119,23.168,34.0573
45,2014/10/5,0:37:00,34-23.2500N,137-16.6200E,115,23.182,34.0462
46,2014/10/5,0:38:00,34-23.1700N,137-16.8200E,119,23.198,34.0467
47,2014/10/5,0:39:00,34-23.0800N,137-17.0200E,116,23.206,34.044
48,2014/10/5,0:40:00,34-23.0000N,137-17.2100E,118,23.211,34.0399
49,2014/10/5,0:41:00,34-22.9100N,137-17.4000E,117,23.22,34.0414
50,2014/10/5,0:42:00,34-22.8300N,137-17.6000E,117,23.227,34.0418
51,2014/10/5,0:43:00,34-22.7400N,137-17.8000E,116,23.229,34.0423
52,2014/10/5,0:44:00,34-22.6500N,137-17.9900E,118,23.234,34.0443
53,2014/10/5,0:45:00,34-22.5600N,137-18.1900E,117,23.244,34.0451
54,2014/10/5,0:46:00,34-22.4700N,137-18.3900E,119,23.251,34.0427
55,2014/10/5,0:47:00,34-22.3700N,137-18.6000E,119,23.257,34.0405
56,2014/10/5,0:48:00,34-22.2800N,137-18.7900E,118,23.26,34.0426
57,2014/10/5,0:49:00,34-22.1900N,137-18.9900E,117,23.264,34.0421
58,2014/10/5,0:50:00,34-22.1000N,137-19.1700E,122,23.267,34.0425
59,2014/10/5,0:51:00,34-22.0100N,137-19.3700E,118,23.266,34.0412
60,2014/10/5,0:52:00,34-21.9200N,137-19.5600E,119,23.27,34.0416
61,2014/10/5,0:53:00,34-21.8300N,137-19.7500E,119,23.272,34.0397
62,2014/10/5,0:54:00,34-21.7300N,137-19.9400E,119,23.281,34.0369
63,2014/10/5,0:55:00,34-21.6500N,137-20.1400E,119,23.288,34.0294
64,2014/10/5,0:56:00,34-21.5600N,137-20.3300E,119,23.291,34.0321
65,2014/10/5,0:57:00,34-21.4700N,137-20.5100E,120,23.291,34.028
66,2014/10/5,0:58:00,34-21.3800N,137-20.7000E,119,23.287,34.0305
67,2014/10/5,0:59:00,34-21.2800N,137-20.8900E,119,23.288,34.028
68,2014/10/5,1:00:00,34-21.2000N,137-21.0800E,120,23.283,34.0296
69,2014/10/5,1:01:00,34-21.1100N,137-21.2700E,118,23.28,34.0297
70,2014/10/5,1:02:00,34-21.0300N,137-21.4500E,120,23.28,34.0295
71,2014/10/5,1:03:00,34-20.9400N,137-21.6400E,117,23.286,34.0354
72,2014/10/5,1:04:00,34-20.8500N,137-21.8300E,116,23.297,34.0331
73,2014/10/5,1:05:00,34-20.7600N,137-22.0100E,120,23.309,34.0316
74,2014/10/5,1:06:00,34-20.6800N,137-22.2000E,116,23.316,34.0306
75,2014/10/5,1:07:00,34-20.5900N,137-22.3800E,118,23.323,34.0284
76,2014/10/5,1:08:00,34-20.5100N,137-22.5600E,121,23.329,34.0276
77,2014/10/5,1:09:00,34-20.4100N,137-22.7700E,118,23.346,34.0226
78,2014/10/5,1:10:00,34-20.3200N,137-22.9500E,120,23.36,34.0179
79,2014/10/5,1:11:00,34-20.2400N,137-23.1300E,119,23.373,34.0102
80,2014/10/5,1:12:00,34-20.1500N,137-23.3200E,119,23.383,34.0086
81,2014/10/5,1:13:00,34-20.0600N,137-23.5100E,118,23.389,34.0104
82,2014/10/5,1:14:00,34-19.9700N,137-23.6900E,118,23.395,34.0063
83,2014/10/5,1:15:00,34-19.8900N,137-23.8800E,120,23.404,34.0109
84,2014/10/5,1:16:00,34-19.8100N,137-24.0700E,119,23.409,33.9983
85,2014/10/5,1:17:00,34-19.7200N,137-24.2500E,118,23.416,---
86,2014/10/5,1:18:00,34-19.6300N,137-24.4400E,119,23.419,33.9687
87,2014/10/5,1:19:00,34-19.5500N,137-24.6200E,119,23.43,33.9661
88,2014/10/5,1:20:00,34-19.4600N,137-24.8000E,119,23.443,34.0002
89,2014/10/5,1:21:00,34-19.3700N,137-24.9900E,119,23.459,33.9833
90,2014/10/5,1:22:00,34-19.2800N,137-25.1700E,120,23.468,33.994
91,2014/10/5,1:23:00,34-19.1900N,137-25.3600E,119,23.476,33.9916
92,2014/10/5,1:24:00,34-19.1100N,137-25.5400E,118,23.48,33.99
93,2014/10/5,1:25:00,34-19.0200N,137-25.7300E,120,23.488,33.9873
94,2014/10/5,1:26:00,34-18.9300N,137-25.9100E,119,23.492,33.9906
95,2014/10/5,1:27:00,34-18.8400N,137-26.1000E,118,23.495,33.9902
96,2014/10/5,1:28:00,34-18.7500N,137-26.2800E,121,23.502,33.9908
97,2014/10/5,1:29:00,34-18.6600N,137-26.4600E,118,23.509,33.9854
98,2014/10/5,1:30:00,34-18.5700N,137-26.6500E,120,23.514,33.9875
99,2014/10/5,1:31:00,34-18.4900N,137-26.8300E,120,23.518,33.9886
100,2014/10/5,1:32:00,34-18.3900N,137-27.0200E,119,23.523,33.9742
101,2014/10/5,1:33:00,34-18.3000N,137-27.2000E,121,23.528,33.9867
102,2014/10/5,1:34:00,34-18.2100N,137-27.3800E,124,23.534,33.9865
103,2014/10/5,1:35:00,34-18.1300N,137-27.5600E,118,23.541,33.9838
104,2014/10/5,1:36:00,34-18.0400N,137-27.7400E,118,23.544,33.9836
105,2014/10/5,1:37:00,34-17.9600N,137-27.9200E,119,23.549,33.9854
106,2014/10/5,1:38:00,34-17.8700N,137-28.0900E,121,23.555,33.9841
107,2014/10/5,1:39:00,34-17.7800N,137-28.2700E,120,23.568,33.9783
108,2014/10/5,1:40:00,34-17.6900N,137-28.4500E,120,23.575,33.9753
109,2014/10/5,1:41:00,34-17.6000N,137-28.6300E,121,23.583,33.9801
110,2014/10/5,1:42:00,34-17.5100N,137-28.8100E,122,23.59,---
111,2014/10/5,1:43:00,34-17.4300N,137-28.9900E,119,23.597,33.9788
112,2014/10/5,1:44:00,34-17.3400N,137-29.1700E,121,23.599,33.9767
113,2014/10/5,1:45:00,34-17.2500N,137-29.3500E,118,23.602,33.9778
114,2014/10/5,1:46:00,34-17.1600N,137-29.5200E,121,23.607,33.9759
115,2014/10/5,1:47:00,34-17.0700N,137-29.7000E,120,23.612,33.978
116,2014/10/5,1:48:00,34-16.9900N,137-29.8800E,121,23.615,33.9759
117,2014/10/5,1:49:00,34-16.9000N,137-30.0700E,118,23.618,33.9683
118,2014/10/5,1:50:00,34-16.8100N,137-30.2400E,119,23.618,33.9744
119,2014/10/5,1:51:00,34-16.7200N,137-30.4200E,120,23.618,33.9741
120,2014/10/5,1:52:00,34-16.6300N,137-30.6000E,121,23.616,33.9693
121,2014/10/5,1:53:00,34-16.5400N,137-30.7900E,121,23.621,33.9705
122,2014/10/5,1:54:00,34-16.4500N,137-30.9700E,122,23.624,33.9633
123,2014/10/5,1:55:00,34-16.3600N,137-31.1500E,121,23.627,33.9682
124,2014/10/5,1:56:00,34-16.2700N,137-31.3200E,122,23.628,33.9668
125,2014/10/5,1:57:00,34-16.1800N,137-31.5000E,122,23.627,33.9621
126,2014/10/5,1:58:00,34-16.0900N,137-31.6700E,121,23.627,33.9674
127,2014/10/5,1:59:00,34-16.0000N,137-31.8400E,121,23.623,33.9681
128,2014/10/5,2:00:00,34-15.9100N,137-32.0200E,121,23.619,33.9696
129,2014/10/5,2:01:00,34-15.8200N,137-32.1900E,122,23.615,33.9609
130,2014/10/5,2:02:00,34-15.7300N,137-32.3700E,121,23.611,33.9687
131,2014/10/5,2:03:00,34-15.6400N,137-32.5500E,122,23.604,33.9676
132,2014/10/5,2:04:00,34-15.5500N,137-32.7300E,119,23.6,33.9702
133,2014/10/5,2:05:00,34-15.4600N,137-32.9100E,120,23.594,33.9675
134,2014/10/5,2:06:00,34-15.3700N,137-33.0900E,121,23.591,33.9723
135,2014/10/5,2:07:00,34-15.2800N,137-33.2600E,124,23.585,33.9725
136,2014/10/5,2:08:00,34-15.1900N,137-33.4400E,121,23.582,33.972
137,2014/10/5,2:09:00,34-15.1000N,137-33.6100E,121,23.577,33.9721
138,2014/10/5,2:10:00,34-15.0100N,137-33.7800E,121,23.577,33.9714
139,2014/10/5,2:11:00,34-14.9200N,137-33.9500E,123,23.577,33.9689
140,2014/10/5,2:12:00,34-14.8300N,137-34.1100E,123,23.574,33.9676
141,2014/10/5,2:13:00,34-14.7400N,137-34.2800E,124,23.572,33.9543
142,2014/10/5,2:14:00,34-14.6600N,137-34.4500E,122,23.57,33.9676
143,2014/10/5,2:15:00,34-14.5600N,137-34.6400E,122,23.569,33.9659
144,2014/10/5,2:16:00,34-14.4700N,137-34.8100E,122,23.565,33.9685
145,2014/10/5,2:17:00,34-14.3800N,137-34.9900E,122,23.561,33.9642
146,2014/10/5,2:18:00,34-14.2900N,137-35.1700E,122,23.559,33.9677
147,2014/10/5,2:19:00,34-14.2000N,137-35.3400E,121,23.558,33.9678
148,2014/10/5,2:20:00,34-14.1100N,137-35.5200E,119,23.554,33.9707
149,2014/10/5,2:21:00,34-14.0200N,137-35.6900E,122,23.55,33.9692
150,2014/10/5,2:22:00,34-13.9200N,137-35.8600E,121,23.545,33.9677
151,2014/10/5,2:23:00,34-13.8300N,137-36.0300E,121,23.541,33.9668
152,2014/10/5,2:24:00,34-13.7300N,137-36.1900E,122,23.54,33.9613
153,2014/10/5,2:25:00,34-13.6400N,137-36.3600E,125,23.536,33.9668
154,2014/10/5,2:26:00,34-13.5400N,137-36.5300E,125,23.535,33.9664
155,2014/10/5,2:27:00,34-13.4500N,137-36.7000E,122,23.533,33.9663
156,2014/10/5,2:28:00,34-13.3600N,137-36.8700E,122,23.531,33.9668
157,2014/10/5,2:29:00,34-13.2700N,137-37.0500E,121,23.529,33.9607
158,2014/10/5,2:30:00,34-13.1800N,137-37.2200E,124,23.528,33.9674
159,2014/10/5,2:31:00,34-13.0900N,137-37.3900E,121,23.527,33.9662
160,2014/10/5,2:32:00,34-12.9900N,137-37.5500E,123,23.525,33.969
161,2014/10/5,2:33:00,34-12.9000N,137-37.7300E,123,23.526,33.97
162,2014/10/5,2:34:00,34-12.8100N,137-37.8900E,122,23.527,33.9679
163,2014/10/5,2:35:00,34-12.7100N,137-38.0700E,120,23.527,33.9694
164,2014/10/5,2:36:00,34-12.6100N,137-38.2400E,124,23.527,33.9678
165,2014/10/5,2:37:00,34-12.5200N,137-38.4100E,121,23.529,33.9699
166,2014/10/5,2:38:00,34-12.4300N,137-38.5800E,123,23.53,33.963
167,2014/10/5,2:39:00,34-12.3300N,137-38.7500E,122,23.532,33.954
168,2014/10/5,2:40:00,34-12.2500N,137-38.9100E,124,23.533,33.9661
169,2014/10/5,2:41:00,34-12.1500N,137-39.0700E,125,23.536,33.9669
170,2014/10/5,2:42:00,34-12.0600N,137-39.2400E,125,23.538,33.966
171,2014/10/5,2:43:00,34-11.9600N,137-39.4000E,124,23.539,33.9561
172,2014/10/5,2:44:00,34-11.8700N,137-39.5700E,123,23.54,33.9654
173,2014/10/5,2:45:00,34-11.7800N,137-39.7400E,122,23.542,33.9646
174,2014/10/5,2:46:00,34-11.6800N,137-39.9000E,123,23.545,33.9603
175,2014/10/5,2:47:00,34-11.5800N,137-40.0700E,124,23.542,33.9622
176,2014/10/5,2:48:00,34-11.4800N,137-40.2400E,123,23.544,33.959
177,2014/10/5,2:49:00,34-11.3900N,137-40.4000E,125,23.543,33.9655
178,2014/10/5,2:50:00,34-11.2900N,137-40.5600E,126,23.542,33.9654
179,2014/10/5,2:51:00,34-11.2000N,137-40.7300E,125,23.544,33.9683
180,2014/10/5,2:52:00,34-11.1000N,137-40.8900E,127,23.543,33.9632
181,2014/10/5,2:53:00,34-11.0200N,137-41.0500E,121,23.544,33.9634
182,2014/10/5,2:54:00,34-10.9100N,137-41.2100E,127,23.543,33.9628
183,2014/10/5,2:55:00,34-10.8200N,137-41.3700E,124,23.543,33.9693
184,2014/10/5,2:56:00,34-10.7200N,137-41.5400E,126,23.543,33.9712
185,2014/10/5,2:57:00,34-10.6200N,137-41.7100E,124,23.543,33.9695
186,2014/10/5,2:58:00,34-10.5300N,137-41.8700E,123,23.543,33.9494
187,2014/10/5,2:59:00,34-10.4400N,137-42.0300E,126,23.544,33.9685
188,2014/10/5,3:00:00,34-10.3500N,137-42.1900E,124,23.545,33.9671
189,2014/10/5,3:01:00,34-10.2600N,137-42.3600E,123,23.546,33.967
190,2014/10/5,3:02:00,34-10.1600N,137-42.5200E,127,23.546,33.9669
191,2014/10/5,3:03:00,34-10.0700N,137-42.6800E,123,23.547,33.9682
192,2014/10/5,3:04:00,34-09.9800N,137-42.8500E,124,23.545,33.9666
193,2014/10/5,3:05:00,34-09.8800N,137-43.0000E,126,23.545,33.9632
194,2014/10/5,3:06:00,34-09.7900N,137-43.1600E,126,23.545,33.9645
195,2014/10/5,3:07:00,34-09.6900N,137-43.3300E,127,23.549,33.9632
196,2014/10/5,3:08:00,34-09.6000N,137-43.4900E,124,23.553,33.961
197,2014/10/5,3:09:00,34-09.5000N,137-43.6500E,127,23.555,33.9602
198,2014/10/5,3:10:00,34-09.4100N,137-43.8100E,123,23.56,33.9588
199,2014/10/5,3:11:00,34-09.3200N,137-43.9700E,123,23.561,33.9599
200,2014/10/5,3:12:00,34-09.2300N,137-44.1300E,129,23.56,33.9591
201,2014/10/5,3:13:00,34-09.1300N,137-44.2900E,124,23.561,33.9574
202,2014/10/5,3:14:00,34-09.0400N,137-44.4600E,119,23.562,33.9526
203,2014/10/5,3:15:00,34-08.9500N,137-44.6100E,125,23.562,33.9524
204,2014/10/5,3:16:00,34-08.8600N,137-44.7800E,123,23.561,33.9497
205,2014/10/5,3:17:00,34-08.7700N,137-44.9400E,122,23.563,33.9381
206,2014/10/5,3:18:00,34-08.6800N,137-45.1100E,124,23.565,33.9445
207,2014/10/5,3:19:00,34-08.5700N,137-45.2800E,125,23.567,33.9465
208,2014/10/5,3:20:00,34-08.4800N,137-45.4400E,125,23.569,33.9431
209,2014/10/5,3:21:00,34-08.3800N,137-45.6000E,127,23.568,33.9476
210,2014/10/5,3:22:00,34-08.2900N,137-45.7700E,122,23.572,33.9409
211,2014/10/5,3:23:00,34-08.1900N,137-45.9300E,129,23.571,33.9457
212,2014/10/5,3:24:00,34-08.0800N,137-46.0900E,126,23.571,33.9326
213,2014/10/5,3:25:00,34-07.9900N,137-46.2500E,124,23.571,33.9399
214,2014/10/5,3:26:00,34-07.9000N,137-46.4100E,124,23.572,33.9455
215,2014/10/5,3:27:00,34-07.8100N,137-46.5600E,125,23.571,33.9469
216,2014/10/5,3:28:00,34-07.7200N,137-46.7300E,123,23.573,33.9467
217,2014/10/5,3:29:00,34-07.6200N,137-46.8800E,129,23.573,33.9353
218,2014/10/5,3:30:00,34-07.5200N,137-47.0300E,125,23.574,33.9442
219,2014/10/5,3:31:00,34-07.4400N,137-47.1900E,121,23.575,33.9421
220,2014/10/5,3:32:00,34-07.3600N,137-47.3600E,122,23.576,33.9429
221,2014/10/5,3:33:00,34-07.2600N,137-47.5100E,127,23.576,33.9422
222,2014/10/5,3:34:00,34-07.1700N,137-47.6700E,121,23.576,33.9424
223,2014/10/5,3:35:00,34-07.0900N,137-47.8200E,126,23.578,33.9415
224,2014/10/5,3:36:00,34-06.9900N,137-47.9700E,124,23.58,33.9411
225,2014/10/5,3:37:00,34-06.9000N,137-48.1300E,127,23.583,33.9406
226,2014/10/5,3:38:00,34-06.8000N,137-48.2800E,126,23.585,33.9411
227,2014/10/5,3:39:00,34-06.7100N,137-48.4400E,125,23.589,33.9393
228,2014/10/5,3:40:00,34-06.6200N,137-48.6000E,124,23.59,33.9329
229,2014/10/5,3:41:00,34-06.5200N,137-48.7600E,126,23.593,33.9443
230,2014/10/5,3:42:00,34-06.4300N,137-48.9200E,124,23.594,33.9464
231,2014/10/5,3:43:00,34-06.3300N,137-49.0700E,127,23.594,33.9496
232,2014/10/5,3:44:00,34-06.2400N,137-49.2100E,128,23.596,33.9513
233,2014/10/5,3:45:00,34-06.1400N,137-49.3600E,128,23.598,33.9386
234,2014/10/5,3:46:00,34-06.0600N,137-49.5100E,125,23.598,33.953
235,2014/10/5,3:47:00,34-05.9600N,137-49.6500E,132,23.601,33.9539
236,2014/10/5,3:48:00,34-05.8700N,137-49.7900E,127,23.603,33.9535
237,2014/10/5,3:49:00,34-05.7800N,137-49.9400E,122,23.603,33.9543
238,2014/10/5,3:50:00,34-05.6800N,137-50.0900E,129,23.606,33.9558
239,2014/10/5,3:51:00,34-05.5800N,137-50.2400E,128,23.608,33.9544
240,2014/10/5,3:52:00,34-05.4900N,137-50.3900E,124,23.608,33.957
241,2014/10/5,3:53:00,34-05.4000N,137-50.5400E,128,23.609,33.9569
242,2014/10/5,3:54:00,34-05.3000N,137-50.6800E,126,23.61,33.9579
243,2014/10/5,3:55:00,34-05.2100N,137-50.8400E,125,23.612,33.9553
244,2014/10/5,3:56:00,34-05.1200N,137-50.9900E,127,23.613,33.9597
245,2014/10/5,3:57:00,34-05.0100N,137-51.1400E,133,23.614,33.9555
246,2014/10/5,3:58:00,34-04.9200N,137-51.2700E,125,23.617,33.9603
247,2014/10/5,3:59:00,34-04.8400N,137-51.4200E,123,23.616,33.9594
248,2014/10/5,4:00:00,34-04.7400N,137-51.5600E,132,23.618,33.9576
249,2014/10/5,4:01:00,34-04.6300N,137-51.7000E,129,23.62,33.9537
250,2014/10/5,4:02:00,34-04.5400N,137-51.8500E,129,23.618,33.9606
251,2014/10/5,4:03:00,34-04.4300N,137-52.0100E,125,23.619,33.9607
252,2014/10/5,4:04:00,34-04.3300N,137-52.1500E,133,23.619,33.961
253,2014/10/5,4:05:00,34-04.2200N,137-52.2800E,133,23.618,33.9576
254,2014/10/5,4:06:00,34-04.1300N,137-52.4200E,127,23.617,33.9603
255,2014/10/5,4:07:00,34-04.0300N,137-52.5600E,134,23.617,33.9616
256,2014/10/5,4:08:00,34-03.9300N,137-52.7000E,124,23.616,33.9596
257,2014/10/5,4:09:00,34-03.8500N,137-52.8500E,128,23.616,33.9607
258,2014/10/5,4:10:00,34-03.7500N,137-52.9700E,133,23.613,33.9596
259,2014/10/5,4:11:00,34-03.6500N,137-53.1000E,129,23.613,33.955
260,2014/10/5,4:12:00,34-03.5600N,137-53.2400E,129,23.61,33.9572
261,2014/10/5,4:13:00,34-03.4600N,137-53.3900E,132,23.61,33.9539
262,2014/10/5,4:14:00,34-03.3600N,137-53.5100E,128,23.609,33.9566
263,2014/10/5,4:15:00,34-03.2800N,137-53.6600E,125,23.606,33.9555
264,2014/10/5,4:16:00,34-03.1800N,137-53.8000E,130,23.606,33.9541
265,2014/10/5,4:17:00,34-03.0900N,137-53.9400E,127,23.606,33.9539
266,2014/10/5,4:18:00,34-02.9900N,137-54.0700E,128,23.604,33.9538
267,2014/10/5,4:19:00,34-02.9100N,137-54.2200E,125,23.603,33.9537
268,2014/10/5,4:20:00,34-02.8200N,137-54.3600E,127,23.599,33.954
269,2014/10/5,4:21:00,34-02.7400N,137-54.5000E,124,23.598,33.955
270,2014/10/5,4:22:00,34-02.6600N,137-54.6400E,124,23.596,33.9565
271,2014/10/5,4:23:00,34-02.5900N,137-54.7700E,123,23.595,33.9562
272,2014/10/5,4:24:00,34-02.5000N,137-54.9000E,127,23.592,33.9599
273,2014/10/5,4:25:00,34-02.4100N,137-55.0400E,129,23.591,33.959
274,2014/10/5,4:26:00,34-02.3300N,137-55.1700E,127,23.589,33.9609
275,2014/10/5,4:27:00,34-02.2400N,137-55.2900E,130,23.586,33.9614
276,2014/10/5,4:28:00,34-02.1700N,137-55.4200E,124,23.586,33.9606
277,2014/10/5,4:29:00,34-02.0900N,137-55.5500E,128,23.584,33.9619
278,2014/10/5,4:30:00,34-02.0000N,137-55.6900E,125,23.584,33.9606
279,2014/10/5,4:31:00,34-01.9200N,137-55.8100E,129,23.584,33.9605
280,2014/10/5,4:32:00,34-01.8400N,137-55.9400E,127,23.581,33.9622
281,2014/10/5,4:33:00,34-01.7600N,137-56.0700E,123,23.58,33.956
282,2014/10/5,4:34:00,34-01.6900N,137-56.2000E,122,23.579,33.9538
283,2014/10/5,4:35:00,34-01.6000N,137-56.3300E,129,23.578,33.9518
284,2014/10/5,4:36:00,34-01.5100N,137-56.4600E,130,23.575,33.9613
285,2014/10/5,4:37:00,34-01.4300N,137-56.5900E,126,23.574,33.9604
286,2014/10/5,4:38:00,34-01.3400N,137-56.7200E,127,23.57,33.9613
287,2014/10/5,4:39:00,34-01.2500N,137-56.8600E,129,23.568,33.961
288,2014/10/5,4:40:00,34-01.1600N,137-56.9900E,129,23.567,33.962
289,2014/10/5,4:41:00,34-01.0600N,137-57.1200E,131,23.565,33.9616
290,2014/10/5,4:42:00,34-00.9700N,137-57.2600E,127,23.565,33.963
291,2014/10/5,4:43:00,34-00.8800N,137-57.4000E,128,23.559,33.9669
292,2014/10/5,4:44:00,34-00.7900N,137-57.5400E,128,23.558,33.9661
293,2014/10/5,4:45:00,34-00.6900N,137-57.6800E,135,23.557,33.9676
294,2014/10/5,4:46:00,34-00.5900N,137-57.8100E,128,23.556,33.9665
295,2014/10/5,4:47:00,34-00.4900N,137-57.9700E,129,23.552,33.9685
296,2014/10/5,4:48:00,34-00.3900N,137-58.1000E,134,23.552,33.969
297,2014/10/5,4:49:00,34-00.3000N,137-58.2500E,127,23.55,33.9653
298,2014/10/5,4:50:00,34-00.2100N,137-58.3900E,125,23.55,33.9684
299,2014/10/5,4:51:00,34-00.1200N,137-58.5300E,130,23.549,33.9719
300,2014/10/5,4:52:00,34-00.0200N,137-58.6700E,127,23.549,33.9715
301,2014/10/5,4:53:00,33-59.9300N,137-58.8200E,123,23.551,33.9718
302,2014/10/5,4:54:00,33-59.8400N,137-58.9600E,130,23.552,33.9735
303,2014/10/5,4:55:00,33-59.7500N,137-59.1000E,134,23.553,33.9724
304,2014/10/5,4:56:00,33-59.6500N,137-59.2200E,128,23.554,33.9736
305,2014/10/5,4:57:00,33-59.5800N,137-59.3600E,125,23.555,33.9736
306,2014/10/5,4:58:00,33-59.4800N,137-59.4900E,133,23.554,33.9733
307,2014/10/5,4:59:00,33-59.3800N,137-59.6200E,130,23.555,33.9739
308,2014/10/5,5:00:00,33-59.2800N,137-59.7600E,128,23.555,33.9756
309,2014/10/5,5:01:00,33-59.1800N,137-59.9000E,132,23.554,33.9765
310,2014/10/5,5:02:00,33-59.0700N,138-00.0300E,137,23.554,33.9767
311,2014/10/5,5:03:00,33-58.9600N,138-00.1600E,132,23.554,33.975
312,2014/10/5,5:04:00,33-58.8700N,138-00.3000E,128,23.552,33.9648
313,2014/10/5,5:05:00,33-58.7700N,138-00.4300E,131,23.547,33.9776
314,2014/10/5,5:06:00,33-58.6700N,138-00.5700E,127,23.54,33.9789
315,2014/10/5,5:07:00,33-58.5700N,138-00.6900E,137,23.531,33.9728
316,2014/10/5,5:08:00,33-58.4600N,138-00.8200E,132,23.523,33.9818
317,2014/10/5,5:09:00,33-58.3700N,138-00.9500E,130,23.511,33.9786
318,2014/10/5,5:10:00,33-58.2900N,138-01.0700E,130,23.508,33.9807
319,2014/10/5,5:11:00,33-58.2000N,138-01.2000E,128,23.511,33.977
320,2014/10/5,5:12:00,33-58.0900N,138-01.3100E,138,23.512,33.9773
321,2014/10/5,5:13:00,33-57.9900N,138-01.4300E,131,23.513,33.9756
322,2014/10/5,5:14:00,33-57.9000N,138-01.5600E,132,23.516,33.9768
323,2014/10/5,5:15:00,33-57.8000N,138-01.6900E,132,23.523,33.9761
324,2014/10/5,5:16:00,33-57.7000N,138-01.8200E,132,23.526,33.9716
325,2014/10/5,5:17:00,33-57.6200N,138-01.9600E,126,23.526,33.9775
326,2014/10/5,5:18:00,33-57.5100N,138-02.0900E,131,23.53,33.9794
327,2014/10/5,5:19:00,33-57.4200N,138-02.2300E,129,23.531,33.9786
328,2014/10/5,5:20:00,33-57.3200N,138-02.3600E,132,23.529,33.9827
329,2014/10/5,5:21:00,33-57.2200N,138-02.5000E,131,23.529,33.9756
330,2014/10/5,5:22:00,33-57.1200N,138-02.6400E,130,23.526,33.9859
331,2014/10/5,5:23:00,33-57.0100N,138-02.7700E,134,23.526,33.9911
332,2014/10/5,5:24:00,33-56.9100N,138-02.9100E,131,23.53,33.9925
333,2014/10/5,5:25:00,33-56.8200N,138-03.0600E,127,23.527,33.9802
334,2014/10/5,5:26:00,33-56.7100N,138-03.1900E,132,23.528,33.9837
335,2014/10/5,5:27:00,33-56.6100N,138-03.3200E,130,23.525,33.9927
336,2014/10/5,5:28:00,33-56.5100N,138-03.4700E,129,23.523,33.9944
337,2014/10/5,5:29:00,33-56.4200N,138-03.6200E,127,23.529,33.9869
338,2014/10/5,5:30:00,33-56.3100N,138-03.7600E,130,23.536,33.9933
339,2014/10/5,5:31:00,33-56.2100N,138-03.9100E,129,23.535,33.9907
340,2014/10/5,5:32:00,33-56.1000N,138-04.0500E,133,23.539,33.9685
341,2014/10/5,5:33:00,33-56.0000N,138-04.1800E,133,23.542,33.9603
342,2014/10/5,5:34:00,33-55.8900N,138-04.3100E,136,23.543,33.9863
343,2014/10/5,5:35:00,33-55.7900N,138-04.4400E,126,23.55,33.9878
344,2014/10/5,5:36:00,33-55.7000N,138-04.5900E,127,23.555,33.987
345,2014/10/5,5:37:00,33-55.5900N,138-04.7200E,135,23.561,33.9849
346,2014/10/5,5:38:00,33-55.4900N,138-04.8500E,134,23.566,33.9845
347,2014/10/5,5:39:00,33-55.4000N,138-04.9900E,124,23.57,33.9857
348,2014/10/5,5:40:00,33-55.3100N,138-05.1400E,124,23.576,33.9849
349,2014/10/5,5:41:00,33-55.2300N,138-05.2900E,120,23.579,33.9861
350,2014/10/5,5:42:00,33-55.1400N,138-05.4400E,129,23.584,33.9862
351,2014/10/5,5:43:00,33-55.0400N,138-05.5900E,128,23.589,33.9831
352,2014/10/5,5:44:00,33-54.9600N,138-05.7300E,120,23.591,33.9797
353,2014/10/5,5:45:00,33-54.8700N,138-05.8700E,128,23.592,33.9854
354,2014/10/5,5:46:00,33-54.7700N,138-06.0000E,128,23.593,33.9824
355,2014/10/5,5:47:00,33-54.6900N,138-06.1400E,122,23.593,33.9802
356,2014/10/5,5:48:00,33-54.6100N,138-06.2800E,128,23.592,33.9773
357,2014/10/5,5:49:00,33-54.5100N,138-06.4100E,124,23.591,33.9775
358,2014/10/5,5:50:00,33-54.4400N,138-06.5600E,120,23.591,33.9757
359,2014/10/5,5:51:00,33-54.3600N,138-06.6900E,129,23.588,33.9777
360,2014/10/5,5:52:00,33-54.2700N,138-06.8300E,128,23.587,33.9719
361,2014/10/5,5:53:00,33-54.1800N,138-06.9500E,132,23.584,33.9715
362,2014/10/5,5:54:00,33-54.0900N,138-07.0800E,127,23.578,33.9739
363,2014/10/5,5:55:00,33-54.0100N,138-07.2200E,122,23.578,33.9716
364,2014/10/5,5:56:00,33-53.9400N,138-07.3700E,121,23.576,33.9708
365,2014/10/5,5:57:00,33-53.8400N,138-07.5100E,128,23.573,33.9717
366,2014/10/5,5:58:00,33-53.7600N,138-07.6600E,124,23.57,33.9704
367,2014/10/5,5:59:00,33-53.6700N,138-07.8000E,128,23.567,33.9653
368,2014/10/5,6:00:00,33-53.5600N,138-07.9400E,135,23.565,33.9677
369,2014/10/5,6:01:00,33-53.4400N,138-08.0700E,133,23.563,33.9586
370,2014/10/5,6:02:00,33-53.3500N,138-08.2000E,129,23.558,33.968
371,2014/10/5,6:03:00,33-53.2700N,138-08.3400E,126,23.553,33.9666
372,2014/10/5,6:04:00,33-53.1700N,138-08.4800E,130,23.549,33.9682
373,2014/10/5,6:05:00,33-53.0800N,138-08.6100E,130,23.543,33.9672
374,2014/10/5,6:06:00,33-52.9900N,138-08.7500E,126,23.542,33.9707
375,2014/10/5,6:07:00,33-52.9000N,138-08.9000E,126,23.542,33.9697
376,2014/10/5,6:08:00,33-52.8100N,138-09.0500E,124,23.541,33.9604
377,2014/10/5,6:09:00,33-52.7300N,138-09.2000E,126,23.537,33.9663
378,2014/10/5,6:10:00,33-52.6300N,138-09.3400E,130,23.536,33.9668
379,2014/10/5,6:11:00,33-52.5400N,138-09.4900E,124,23.532,33.9643